Location: Unspecified
(52.4292°N, 19.3359°E)
Time: 15:19:23
(UTC+01:00)

A-11 Canister half - Pass Details

Date: 20 October 2025
Orbit: 1526 x 1682 km, 47.3° (Epoch: 13 November)

Event Time Altitude Azimuth Distance (km) Brightness Sun altitude
Exits shadow 05:33:34 22° 261° (W) 2,877 9.8 -16.4°
Maximum altitude 05:40:01 63° 188° (S) 1,673 9.1 -15.5°
Drops below altitude 10° 05:49:11 10° 110° (ESE) 3,718 12.2 -14.1°
Sets 05:52:17 0° 108° (ESE) 4,714 13.1 -13.6°
